Regional Weather Roundup
Issued by NWS

Home | Current Version | Previous Version | Text Only | Print | Product List | Glossary Off
Versions: 1 2 3 4 5 6 7 8 9 10 11 12 13 14 15 16 17 18 19 20 21 22 23 24 25 26 27 28 29 30 31 32 33 34 35 36 37 38 39 40 41 42 43 44 45 46 47 48 49 50

000
ASUS43 KOAX 250010
RWRNE

WEATHER ROUNDUP FOR NEBRASKA
NATIONAL WEATHER SERVICE OMAHA NE
600 PM CST SAT FEB 24 2018

NOTES: SATELLITE DATA IS BEING USED TO AUGMENT CLOUD COVER ABOVE
       12000 FEET.
       "FAIR" INDICATES FEW OR NO CLOUDS BELOW 12,000 FEET WITH NO
       SIGNIFICANT WEATHER AND/OR OBSTRUCTIONS TO VISIBILITY.


NEZ001>004-019>022-054>056-250100-
NEBRASKA PANHANDLE

CITY           SKY/WX    TMP DP  RH WIND       PRES   REMARKS
SCOTTSBLUFF    CLEAR     31  10  41 W22G30    29.75F WCI  18
6HR MIN TEMP:  28; 6HR MAX TEMP:  33;

ALLIANCE       CLEAR     25  13  60 NW12      29.74R WCI  14
6HR MIN TEMP:  25; 6HR MAX TEMP:  28;

CHADRON        CLEAR     23  14  68 W13       29.76R WCI  11
6HR MIN TEMP:  19; 6HR MAX TEMP:  28;

GORDON         FAIR      27  11  51 W16G22    29.70R WCI  14
6HR MIN TEMP:  25; 6HR MAX TEMP:  28;

KIMBALL        CLEAR     25  11  54 NW18G26   29.75S WCI  12
SIDNEY         CLEAR     30  11  45 NW15G24   29.77S WCI  19
6HR MIN TEMP:  30; 6HR MAX TEMP:  33;

$$

NEZ057>060-069>072-079>082-250100-
SOUTHWEST NEBRASKA

CITY           SKY/WX    TMP DP  RH WIND       PRES   REMARKS
NORTH PLATTE   CLEAR     29  16  58 NW14      29.78R WCI  18
6HR MIN TEMP:  28; 6HR MAX TEMP:  35; 6HR PCP: TRACE;

IMPERIAL       CLEAR     33  13  43 NW20G30   29.80R WCI  21
6HR MIN TEMP:  32; 6HR MAX TEMP:  36;

LEXINGTON      CLEAR     34  19  55 NW20      29.77R WCI  22
MCCOOK         CLEAR     36  19  50 NW18G26   29.80R WCI  26
6HR MIN TEMP:  28; 6HR MAX TEMP:  39;

OGALLALA       CLEAR     32  14  47 NW18G24   29.79R WCI  20
$$

NEZ005>010-023>029-035>040-094-250100-
NORTH CENTRAL NEBRASKA

CITY           SKY/WX    TMP DP  RH WIND       PRES   REMARKS
VALENTINE      CLEAR     25  13  60 W16       29.71R WCI  12
6HR MIN TEMP:  24; 6HR MAX TEMP:  33; 6HR PCP: TRACE;

AINSWORTH      CLEAR     25  18  77 W16       29.69R WCI  12
BROKEN BOW     CLEAR     30  17  58 W17       29.71R WCI  18
6HR MIN TEMP:  26; 6HR MAX TEMP:  33; 6HR PCP:  0.01;

O`NEILL        CLOUDY    27  23  85 NW23G33   29.67R FOG     WCI  13
ORD            CLEAR     30  21  69 NW23G32   29.69R WCI  17
6HR MIN TEMP:  22; 6HR MAX TEMP:  34; 6HR PCP: TRACE;

THEDFORD       CLEAR     29  17  60 NW15G21   29.74R WCI  18
$$

NEZ041-046>049-061>064-073>077-083>087-250100-
SOUTH CENTRAL NEBRASKA

CITY           SKY/WX    TMP DP  RH WIND       PRES   REMARKS
GRAND ISLAND   CLEAR     35  23  61 W22G31    29.71R WCI  23
6HR MIN TEMP:  22; 6HR MAX TEMP:  36;

AURORA         CLEAR     34  26  74 W16       29.70R WCI  23
HASTINGS       CLEAR     35  22  58 W24G33    29.73R WCI  23
6HR MIN TEMP:  23; 6HR MAX TEMP:  36; 6HR PCP: TRACE;

HEBRON         PTCLDY    33  31  91 SW7       29.76R WCI  27
HOLDREGE       CLEAR     35  19  51 NW16G22   29.76R WCI  25
KEARNEY        CLEAR     34  19  54 W21G31    29.75R WCI  22
YORK           CLEAR     30  30 100 CALM      29.70S
$$

NEZ011>018-030>034-042>045-250100-
NORTHEAST NEBRASKA

CITY           SKY/WX    TMP DP  RH WIND       PRES   REMARKS
NORFOLK        MOCLDY    24  21  88 SW7       29.64R WCI  16
6HR MIN TEMP:  22; 6HR MAX TEMP:  26; 6HR PCP: TRACE;

ALBION         CLEAR     32  24  73 W8        29.66R WCI  25
BLAIR          CLOUDY    29  26  89 SW8       29.69R WCI  21
COLUMBUS       CLEAR     27  23  85 SW9       29.69S WCI  18
FREMONT        CLOUDY    28  24  85 W9        29.71R WCI  19
TEKAMAH        MOCLDY    26  22  84 SW9       29.70R WCI  17
6HR MIN TEMP:  25; 6HR MAX TEMP:  28; 6HR PCP:  0.01;

WAYNE          MOCLDY    26  25  96 SW7       29.66S WCI  18
$$

NEZ050>053-065>068-078-088>093-250100-
SOUTHEAST NEBRASKA

CITY           SKY/WX    TMP DP  RH WIND       PRES   REMARKS
LINCOLN        PTCLDY    30  26  85 W9        29.73F WCI  22
6HR MIN TEMP:  27; 6HR MAX TEMP:  31; 6HR PCP: TRACE;

OMAHA EPPLEY   MOCLDY    29  25  85 W12       29.72R WCI  19
6HR MIN TEMP:  28; 6HR MAX TEMP:  30; 6HR PCP:  0.03;

BEATRICE       PTCLDY    32  29  89 W10       29.75R WCI  24
FALLS CITY     CLOUDY    32  29  88 W10       29.76R WCI  24
6HR MIN TEMP:  31; 6HR MAX TEMP:  32; 6HR PCP:  0.03;

NEBRASKA CITY  CLOUDY    30  30 100 W10       29.74R WCI  21
PLATTSMOUTH    CLOUDY    29  28  93 W10       29.72R WCI  20
$$

NEZ044-045-051>053-067-250100-
OMAHA AREA

CITY           SKY/WX    TMP DP  RH WIND       PRES   REMARKS
OMAHA EPPLEY   MOCLDY    29  25  85 W12       29.72R WCI  19
6HR MIN TEMP:  28; 6HR MAX TEMP:  30; 6HR PCP:  0.03;

BLAIR          CLOUDY    29  26  89 SW8       29.69R WCI  21
FREMONT        CLOUDY    28  24  85 W9        29.71R WCI  19
MILLARD        CLOUDY    31  27  86 W6        29.72R WCI  25
OFFUTT AFB     MOCLDY    29  27  89 W9        29.72R WCI  21
PLATTSMOUTH    CLOUDY    29  28  93 W10       29.72R WCI  20
WAHOO          MOCLDY    29  24  81 W8        29.71R WCI  21
$$




USA.gov is the U.S. government's official web portal to all federal, state and local government web resources and services.